Weather Service Report


874 
ASUS45 KTFX 210010
RWRMT 
MONTANA REGIONAL WEATHER ROUNDUP
NATIONAL WEATHER SERVICE GREAT FALLS MT
600 PM MDT FRI JUL 20 2018

NOTE: "FAIR" INDICATES FEW OR NO CLOUDS BELOW 12000 FEET WITH NO
SIGNIFICANT WEATHER AND/OR OBSTRUCTIONS TO VISIBILITY.

MTZ001>007-043-210100-
WEST OF THE DIVIDE
  
CITY           SKY/WX    TMP DP  RH WIND       PRES   REMARKS
KALISPELL      FAIR      85  28  12 W13       29.92F                  
MISSOULA       FAIR      88  31  13 NW15G25   29.92F                  
BUTTE          FAIR      87  26  11 W7G21     30.05S                  
MULLAN PASS    FAIR      65  26  23 VRB5      30.16S                  
ANACONDA         N/A     88  39  18 N5        29.99F                  
DEER LODGE       N/A     84  36  17 NW12G20   30.00F                  
LIBBY            N/A     82  27  13 N9        29.93S                  
RONAN            N/A     86  27  11 W9        29.95S                  
$$

MTZ008-052>055-210100-
SOUTHWEST MONTANA
  
CITY           SKY/WX    TMP DP  RH WIND       PRES   REMARKS
BOZEMAN        FAIR      90  38  16 NE7       29.97F                  
DILLON         FAIR      85  41  21 S8        29.99F                  
ENNIS          SUNNY     90  30  12 SW13      30.06F                  
W YELLOWSTONE  FAIR      81  30  16 SW8       30.17F                  
$$

MTZ009-010-012-014-046-048-049-054-210100-
EAST SLOPES AND CENTRAL MONTANA
  
CITY           SKY/WX    TMP DP  RH WIND       PRES   REMARKS
CUT BANK       FAIR      85  21   9 W21G30    29.92R                  
GREAT FALLS    FAIR      93  25   8 W22G32    29.90S                  
MALMSTROM AFB  FAIR      91  29  10 W12G22    29.89S                  
HELENA         FAIR      92  35  13 SE6       29.91F                  
AUGUSTA        FAIR      85  27  12 SW14      29.95S                  
BOWMANS CRNR   FAIR      85  26  11 W21G28    29.94S                  
CHOTEAU          N/A     88  25  10 W14G24    29.94S                  
FAIRFIELD      FAIR      87  35  15 SW12      29.92S                  
WHITE SULPHUR    N/A     86  32  14 S7G18     30.01F                  
$$

MTZ011-013-016-021-045-047-050-051-210100-
NORTH CENTRAL MONTANA
  
CITY           SKY/WX    TMP DP  RH WIND       PRES   REMARKS
HAVRE          FAIR      95  35  12 S10       29.83F HX  90           
LEWISTOWN      FAIR      88  44  21 CALM      29.97F                  
N BAR RANCH    FAIR      84  48  28 SE10      30.03F                  
CHINOOK          N/A     97  37  12 CALM      29.83F HX  92           
DENTON         FAIR      95  45  17 S5        29.89F HX  91           
GRASS RANGE    FAIR      85  50  29 S12       29.93F                  
ROY            FAIR      90  56  30 S12       29.93F                  
WINIFRED       FAIR      87  43  20 SE6       29.92F                  
$$

MTZ017>020-022>027-061-062-210100-
NORTHEAST MONTANA
  
CITY           SKY/WX    TMP DP  RH WIND       PRES   REMARKS
GLASGOW        FAIR      91  51  25 SE22G28   29.92F                  
GLENDIVE       FAIR      85  56  37 SE10      30.00S                  
JORDAN           N/A     91  51  25 SE14G26   29.93S                  
MALTA          MOSUNNY   90  50  25 S12       29.84F                  
SIDNEY         FAIR      86  54  33 E8        30.00S                  
WOLF POINT     FAIR      88  51  28 E10       29.96F                  
POPLAR           N/A     84  52  32 E13G22    29.98F                  
$$

MTZ028>42-056>058-210100-
SOUTHCENTRAL AND SOUTHEAST MONTANA
  
CITY           SKY/WX    TMP DP  RH WIND       PRES   REMARKS
BAKER          FAIR      81  57  43 E17       30.05F                  
BILLINGS       FAIR      90  47  22 E8        29.96F                  
LIVINGSTON     FAIR      91  35  13 VRB3      29.98F                  
MILES CITY     FAIR      91  55  29 E12       29.94F                  
BIG TIMBER     SUNNY     88  30  12 E5        30.00F                  
EKALAKA          N/A     84  50  30 E12       30.02F                  
HARLOWTON      FAIR      87  33  14 CALM      29.99F                  
$$

REGIONAL REPORTS...DAKOTAS
  
CITY           SKY/WX    TMP DP  RH WIND       PRES   REMARKS
WILLISTON      FAIR      80  55  42 E10       30.03F                  
MINOT          FAIR      80  52  37 NE9       30.05R                  
DICKINSON      FAIR      78  54  43 E10       30.05S                  
BEACH          FAIR      82  52  34 SE12      30.07S                  
CROSBY         FAIR      79  52  38 E13       30.06S                  
TIOGA          FAIR      77  50  38 SE13      30.08S                  
WATFORD CITY   FAIR      81  50  34 SE7G15    30.04S                  
BISMARCK       FAIR      79  55  43 NE12      30.04R                  
GRAND FORKS    PTSUNNY   72  65  78 N13       29.98F                  
FARGO          FAIR      74  65  73 N16G24    29.97R                  
BUFFALO SD       N/A     84  52  33 E15G22    30.00S                  
RAPID CITY     FAIR      81  60  48 E12       30.06F                  
$$

REGIONAL REPORTS...WYOMING/IDAHO/WASHINGTON
  
CITY           SKY/WX    TMP DP  RH WIND       PRES   REMARKS
GILLETTE       FAIR      89  58  34 SE14      30.01F                  
SHERIDAN       FAIR      94  48  20 E5        29.98F HX  90           
BUFFALO WY     FAIR      92  45  19 N12       30.06S                  
CODY           FAIR      87  47  24 N10       30.05S                  
YELLOWSTONE LA   N/A     76  28  17 VRB7      30.31S                  
IDAHO FALLS    FAIR      93  32  11 S13G23    30.02F                  
SALMON         FAIR      94  30  10 W8G17     29.89F                  
BOISE          FAIR      98  28   8 N14       29.90F HX  92           
SPOKANE        FAIR      80  28  15 SW14G20   29.99F                  
$$

REGIONAL REPORTS...ALBERTA
  
CITY           SKY/WX    TMP DP  RH WIND       PRES   REMARKS
CALGARY        MOSUNNY   75  55  50 N16G24    29.82R                  
CARDSTON         N/A     82  25  12 W9          N/A                   
FORT MCMURRAY  CLOUDY    73  57  56 E13       29.93F                  
HIGH LEVEL     PTSUNNY   70  54  56 N8        30.03R                  
LETHBRIDGE     SUNNY     86  30  13 SW17      29.83S                  
LLOYDMINSTER   MOSUNNY   79  63  57 E16G29    29.82F                  
MEDICINE HAT   SUNNY     93  34  12 SW16      29.78S                  
PEACE RIVER    TSTM      57  55  94 N8        29.91F                  
PINCHER CREEK  SUNNY     79  23  12 SW22G30   29.90S                  
$$

REGIONAL REPORTS...SASKATCHEWAN
  
CITY           SKY/WX    TMP DP  RH WIND       PRES   REMARKS
CORONACH         N/A     79  50  36 SE16        N/A                   
CYPRESS HILLS    N/A     81  32  17 S10         N/A                   
ESTEVAN        MOSUNNY   77  54  44 SE10G17   30.06S                  
MOOSE JAW        N/A     81  46  30 SE16G22     N/A                   
PRINCE ALBERT  MOSUNNY   77  57  50 S12G20    30.00F                  
REGINA         MOSUNNY   79  52  38 SE15G23   30.02S                  
ROCKGLEN         N/A     81  46  30 SE14G21     N/A                   
SASKATOON      MOSUNNY   82  54  36 SE20G29   29.95F                  
SWIFT CURRENT  MOSUNNY   86  52  30 SE21G30   29.88S                  
VAL MARIE        N/A     88  46  23 S18G26      N/A                   
$$
  

Return to Home page


Western Regional Climate Center, wrcc@dri.edu